Chicago Midway, IL

1:49 AM CST on December 13, 2019 (GMT -0600)
Chicago-Midway

Weather History for KMDW - November, 2019

Change the Weather History Date:

Friday, November 15, 2019

  Actual Average Record
Temperature  
Mean Temperature 30 °F 42 °F  
Max Temperature 38 °F 49 °F 72 °F (1990)
Min Temperature 22 °F 35 °F 8 °F (1933)
Degree Days  
Heating Degree Days 35 23  
Month to date heating degree days 478 298  
Since 1 July heating degree days 869 729  
Cooling Degree Days 0 0  
Month to date cooling degree days 0 0  
Year to date cooling degree days 1131 1045  
Moisture  
Dew Point 23 °F    
Average Humidity 72    
Maximum Humidity 85    
Minimum Humidity 56    
Precipitation  
Precipitation 0.00 in 0.12 in 0.89 in (1989)
Month to date precipitation 0.15 1.73  
Year to date precipitation 42.97 34.83  
Snow  
Snow 0.00 in - - ()
Snow Depth 2.00 in    
Sea Level Pressure  
Sea Level Pressure 30.40 in    
Wind  
Wind Speed 5 mph (WNW)    
Max Wind Speed 13 mph    
Max Gust Speed 18 mph    
Visibility 9 miles    
Events      
T = Trace of Precipitation, MM = Missing Value Source: NWS Daily Summary

Daily Weather History Graph

Daily Weather History Graph

Search for Another Location

Airport or City:

Astronomy

Nov. 15, 2019 Rise Set
Actual Time 6:40 AM CST 4:30 PM CST
Civil Twilight 6:10 AM CST 5:00 PM CST
Nautical Twilight 5:36 AM CST 5:34 PM CST
Astronomical Twilight 5:03 AM CST 6:06 PM CST
Moon 7:04 PM CST (11/15) 9:37 AM CST (11/15)
Length of Visible Light 10h 50m
Length of Day
9h 50m
Waning Gibbous, 90% of the Moon is Illuminated
Nov 15
Waning Gibbous
Nov 19
Last Quarter
Nov 26
New
Dec 4
First Quarter
Dec 11
Full

Hourly Weather History & Observations

Time (CST) Temp. Windchill Dew Point Humidity Pressure Visibility Wind Dir Wind Speed Gust Speed Precip Events Conditions
12:53 AM 25.0 °F 15.5 °F 17.1 °F 72% 30.35 in 8.0 mi West 9.2 mph - N/A   Clear
1:53 AM 24.1 °F 14.4 °F 17.1 °F 75% 30.35 in 9.0 mi WSW 9.2 mph - N/A   Clear
2:53 AM 24.1 °F 14.4 °F 17.1 °F 75% 30.35 in 9.0 mi West 9.2 mph - N/A   Clear
3:53 AM 23.0 °F 13.9 °F 17.1 °F 78% 30.35 in 9.0 mi WSW 8.1 mph - N/A   Clear
4:53 AM 21.9 °F 13.4 °F 17.1 °F 82% 30.36 in 9.0 mi WSW 6.9 mph - N/A   Clear
5:53 AM 21.9 °F 14.5 °F 17.1 °F 82% 30.37 in 9.0 mi WSW 5.8 mph - N/A   Clear
6:53 AM 21.9 °F 13.4 °F 17.1 °F 82% 30.38 in 9.0 mi WSW 6.9 mph - N/A   Clear
7:53 AM 23.0 °F 15.8 °F 18.0 °F 81% 30.40 in 10.0 mi WSW 5.8 mph - N/A   Partly Cloudy
8:53 AM 27.0 °F 19.5 °F 19.0 °F 72% 30.40 in 10.0 mi West 6.9 mph - N/A   Partly Cloudy
9:53 AM 30.0 °F 23.2 °F 21.0 °F 69% 30.40 in 10.0 mi SW 6.9 mph - N/A   Overcast
10:53 AM 32.0 °F 25.6 °F 21.9 °F 66% 30.41 in 8.0 mi West 6.9 mph - N/A   Overcast
11:53 AM 33.1 °F 26.1 °F 23.0 °F 66% 30.40 in 8.0 mi WNW 8.1 mph - N/A   Overcast
12:53 PM 35.1 °F 31.0 °F 24.1 °F 64% 30.40 in 9.0 mi WNW 4.6 mph - N/A   Overcast
1:53 PM 37.0 °F 33.3 °F 26.1 °F 65% 30.39 in 9.0 mi NNW 4.6 mph - N/A   Overcast
2:53 PM 37.0 °F - 27.0 °F 67% 30.39 in 9.0 mi Calm Calm - N/A   Mostly Cloudy
3:25 PM 37.9 °F - 26.1 °F 62% 30.35 in 10.0 mi Calm Calm - N/A   Mostly Cloudy
3:53 PM 37.9 °F - 27.0 °F 65% 30.40 in 9.0 mi Calm Calm - N/A   Mostly Cloudy
4:53 PM 37.0 °F 33.3 °F 27.0 °F 67% 30.41 in 9.0 mi NNE 4.6 mph - N/A   Mostly Cloudy
5:53 PM 35.1 °F 32.2 °F 27.0 °F 72% 30.43 in 10.0 mi NE 3.5 mph - N/A   Mostly Cloudy
6:53 PM 34.0 °F - 26.1 °F 73% 30.44 in 10.0 mi Calm Calm - N/A   Scattered Clouds
7:53 PM 36.0 °F 33.3 °F 28.0 °F 73% 30.44 in 10.0 mi North 3.5 mph - N/A   Scattered Clouds
8:53 PM 32.0 °F 28.7 °F 26.1 °F 79% 30.45 in 10.0 mi NNW 3.5 mph - N/A   Scattered Clouds
9:53 PM 34.0 °F 29.8 °F 27.0 °F 75% 30.44 in 10.0 mi North 4.6 mph - N/A   Partly Cloudy
10:53 PM 30.0 °F 26.5 °F 25.0 °F 82% 30.45 in 10.0 mi NNW 3.5 mph - N/A   Partly Cloudy
11:53 PM 30.0 °F - 26.1 °F 85% 30.45 in 10.0 mi Calm Calm - N/A   Mostly Cloudy